Lapse_Rate
5.8 5.8 5.8 5.8 5.8 6.0 6.2 6.3 6.4 6.4 6.4 6.5 6.5 6.6 6.7 6.7 6.6 6.4 6.2 6.0 6.1 6.2 6.1 6.2 6.5 6.5 6.6 6.9 7.2 7.3 7.3 7.3 7.3 7.3 7.3 7.1 7.0 6.8 6.9 6.9 6.8 6.6 6.4 6.1 6.0
5.9 5.9 5.9 5.9 5.9 6.0 6.1 6.2 6.3 6.4 6.5 6.6 6.6 6.6 6.7 6.7 6.7 6.5 6.2 6.2 6.2 6.4 6.3 6.3 6.3 6.5 6.7 7.0 7.1 7.3 7.2 7.2 7.1 7.2 7.2 7.2 7.0 6.8 6.9 6.9 6.9 6.7 6.4 6.1 6.1
6.0 6.0 6.0 6.0 6.1 6.1 6.1 6.1 6.1 6.2 6.5 6.6 6.7 6.7 6.8 6.7 6.7 6.5 6.3 6.4 6.4 6.5 6.5 6.3 6.4 6.7 6.9 7.3 7.5 7.5 7.6 7.2 6.9 7.1 7.2 7.3 7.5 7.5 7.5 7.3 7.1 6.9 6.7 6.3 6.2
6.1 6.1 6.1 6.1 6.1 6.2 6.2 6.2 6.2 6.2 6.4 6.6 6.7 6.8 6.7 6.7 6.6 6.3 6.6 6.5 6.4 6.6 6.4 6.4 6.7 6.9 7.2 7.6 7.8 7.8 7.7 7.4 6.9 7.6 7.7 7.8 7.9 7.9 7.8 7.4 7.0 6.7 6.6 6.4 6.3
6.2 6.3 6.3 6.2 6.2 6.2 6.3 6.3 6.3 6.3 6.4 6.6 6.7 6.7 6.6 6.7 6.7 6.7 6.6 6.5 6.6 6.6 6.4 6.7 6.8 7.1 7.4 7.7 7.9 7.9 7.9 7.7 7.6 7.6 7.8 8.0 8.0 8.0 7.7 7.3 7.2 7.0 6.8 6.8 6.4
6.3 6.3 6.4 6.3 6.3 6.3 6.3 6.4 6.4 6.4 6.4 6.6 6.7 6.7 6.7 6.7 6.8 6.7 6.5 6.7 6.7 6.6 6.6 6.8 6.9 7.3 7.6 8.0 8.3 8.4 8.0 8.0 7.6 8.0 8.2 8.0 8.0 7.9 7.5 7.7 7.7 7.0 6.8 6.9 6.8
6.4 6.3 6.4 6.4 6.4 6.4 6.4 6.4 6.5 6.5 6.4 6.5 6.7 6.7 6.8 6.5 6.7 6.4 6.4 6.7 6.8 6.7 6.7 7.0 7.2 7.6 7.9 8.0 8.1 8.2 8.2 8.1 7.9 8.1 8.3 8.1 8.0 7.7 7.7 7.8 7.2 6.8 6.7 6.6 6.4
6.4 6.4 6.4 6.5 6.5 6.4 6.4 6.4 6.5 6.5 6.4 6.5 6.7 6.8 6.8 6.9 6.7 6.5 6.5 6.7 6.8 6.7 6.8 7.0 7.3 7.8 7.9 8.1 8.3 8.3 8.0 8.1 8.2 8.4 8.5 8.1 8.1 7.7 7.7 7.3 6.7 6.6 6.7 6.8 6.5
6.5 6.4 6.4 6.4 6.5 6.5 6.4 6.4 6.4 6.5 6.4 6.4 6.6 6.8 6.7 6.8 6.6 6.6 6.7 6.8 6.8 6.7 6.8 7.0 7.4 7.7 7.9 8.1 8.4 8.2 8.1 8.3 8.6 8.5 8.4 7.8 7.7 7.7 7.5 7.0 6.8 6.3 6.3 6.0 6.2
6.5 6.5 6.5 6.4 6.4 6.4 6.4 6.4 6.4 6.4 6.4 6.4 6.6 6.7 7.0 6.8 6.5 6.4 6.6 6.8 6.8 6.8 6.7 6.9 7.4 7.6 8.0 8.3 8.7 8.2 8.4 8.5 8.2 8.2 8.0 7.7 7.7 7.7 7.2 6.8 6.5 6.1 5.7 5.5 5.2
6.4 6.5 6.5 6.5 6.4 6.4 6.4 6.5 6.4 6.4 6.5 6.5 6.7 6.9 7.2 6.9 6.7 6.5 6.6 6.9 6.8 6.9 6.8 6.9 7.4 7.5 8.2 8.2 8.4 8.4 8.5 8.4 8.3 8.2 8.0 7.8 7.5 7.7 7.3 6.8 6.4 6.1 5.7 5.2 5.2
6.2 6.4 6.5 6.5 6.5 6.5 6.4 6.5 6.5 6.5 6.5 6.8 6.9 7.0 7.1 7.0 6.8 6.6 6.6 6.8 7.0 7.1 6.8 7.0 7.6 7.6 8.1 8.3 8.2 8.6 8.7 8.6 8.5 8.6 8.2 8.1 7.9 7.5 7.1 7.1 6.8 6.5 6.5 6.1 5.8
6.2 6.3 6.4 6.5 6.7 6.6 6.5 6.5 6.4 6.4 6.5 6.8 6.8 6.8 7.0 7.1 7.0 6.8 6.7 6.8 7.1 7.1 7.0 7.2 7.5 7.2 7.7 8.3 8.4 8.8 8.8 9.0 8.8 8.8 8.4 7.9 7.7 7.3 7.0 7.2 7.1 6.7 6.6 6.7 6.2
6.2 6.2 6.3 6.6 6.8 6.7 6.8 6.5 6.4 6.3 6.7 6.9 6.9 6.9 7.1 7.2 6.9 6.8 6.6 6.6 6.9 7.1 7.2 7.2 7.1 7.5 7.9 8.4 8.5 8.6 8.9 9.2 9.0 8.7 8.3 8.0 7.8 7.5 7.2 7.3 7.3 7.2 6.5 6.3 6.4
6.2 6.3 6.4 6.6 6.9 6.8 6.8 6.4 6.3 6.3 7.0 6.9 6.7 7.0 7.1 7.0 7.1 6.8 6.8 6.5 7.0 7.3 7.0 7.2 7.3 7.7 8.0 8.4 8.5 8.4 8.8 8.8 9.1 8.7 8.3 7.8 7.7 7.7 7.3 7.3 7.4 7.3 6.8 6.6 6.4
6.5 6.4 6.5 6.8 7.0 6.9 6.7 6.4 6.3 6.4 6.8 6.6 6.7 6.8 6.9 6.9 6.9 6.9 6.7 6.6 6.7 6.9 7.2 7.1 7.5 7.7 8.4 8.4 8.6 8.6 8.9 8.7 8.9 8.5 8.6 7.9 7.4 7.6 7.5 7.4 7.3 7.3 7.1 7.1 6.7
6.7 6.7 6.6 6.9 6.9 6.9 6.6 6.5 6.4 6.7 6.7 6.8 6.9 6.9 6.9 6.9 6.8 6.9 6.8 6.4 6.4 6.4 6.7 6.9 7.3 8.1 8.3 8.4 8.7 8.8 8.8 9.1 9.1 9.1 9.0 7.9 7.3 7.7 7.6 7.5 7.4 7.2 7.0 7.0 6.7
6.9 6.9 6.8 6.9 6.9 6.9 6.7 6.6 6.6 6.9 6.8 6.8 6.9 6.9 6.7 7.0 6.7 6.9 6.9 6.5 6.6 6.7 7.1 7.1 8.1 8.5 8.7 8.8 9.0 9.1 9.0 9.3 9.0 8.9 8.7 7.6 7.7 7.5 7.8 7.6 7.5 7.5 6.9 7.0 7.0
7.0 7.0 6.8 6.9 6.9 6.8 6.7 6.5 7.1 7.0 6.9 7.0 7.0 6.8 6.7 6.9 6.9 6.7 6.7 6.8 6.8 6.9 7.1 7.3 7.9 8.7 9.0 9.1 9.1 9.3 8.9 9.0 8.9 7.7 7.8 7.4 7.6 7.2 7.7 7.8 7.5 7.5 7.2 7.1 7.1
6.8 6.7 6.7 6.8 6.8 6.6 6.6 7.0 7.1 7.1 7.2 7.2 7.3 7.2 7.0 7.0 7.1 7.0 6.9 6.9 6.9 7.1 7.4 7.6 8.4 9.0 9.0 9.2 9.2 9.1 9.0 9.0 8.9 8.7 8.5 8.0 7.2 7.8 7.9 8.0 8.0 7.5 7.7 7.2 6.9
6.6 6.6 6.6 6.7 6.6 6.5 6.6 7.0 7.1 7.3 7.5 7.5 7.3 7.6 7.6 7.4 7.2 7.2 7.3 7.3 7.3 7.3 7.3 7.6 8.1 8.8 8.9 9.1 8.9 8.8 8.8 9.0 8.9 8.4 9.0 8.9 8.9 8.6 8.1 8.0 7.8 7.9 7.9 7.8 7.4
6.4 6.5 6.7 6.5 6.3 6.5 6.7 7.0 7.2 7.4 7.6 7.7 7.7 7.8 7.9 7.5 7.4 7.4 7.4 7.8 7.7 7.8 7.4 7.7 8.2 8.5 8.7 8.7 8.5 8.3 8.8 9.1 9.3 8.5 8.0 7.9 8.8 8.7 8.5 8.4 8.2 8.0 8.1 7.8 7.4
6.6 6.8 6.7 6.6 6.4 6.4 6.5 6.7 7.0 7.7 7.8 7.9 7.9 8.0 7.9 7.8 8.0 8.1 8.3 8.3 7.9 7.9 7.9 8.1 7.8 8.4 8.8 8.4 8.3 8.2 8.6 9.2 9.3 9.3 8.7 8.9 9.0 8.9 8.7 8.8 8.4 7.9 7.6 7.7 7.5
6.6 6.5 6.5 6.6 6.6 6.6 6.7 6.8 7.2 7.7 7.9 7.9 8.0 8.1 8.0 8.1 8.4 8.6 8.7 8.2 8.2 8.1 8.4 8.5 8.4 8.3 9.1 8.9 8.6 8.5 8.9 9.2 9.3 9.1 8.9 8.9 9.3 9.0 8.9 8.6 8.5 8.4 7.8 7.5 7.3
6.6 6.7 6.8 6.7 6.6 6.8 7.0 7.1 7.3 7.6 8.0 8.0 8.0 8.4 8.3 8.4 8.6 8.9 8.7 8.5 8.4 8.3 8.2 8.3 8.4 8.7 8.7 8.7 8.6 8.8 9.0 9.2 9.1 9.0 8.9 9.1 8.9 9.2 9.2 9.2 8.4 8.2 7.9 7.6 7.4
6.7 6.9 6.9 6.8 6.8 6.9 7.0 7.3 7.7 7.8 8.1 8.2 8.2 8.6 8.4 8.4 8.4 8.6 8.6 8.7 8.7 8.7 8.6 8.5 8.5 8.6 8.6 8.7 8.7 8.7 8.9 8.9 8.7 8.6 8.7 8.7 8.8 8.9 8.8 8.8 8.4 7.9 7.8 7.5 7.3
6.7 7.0 7.0 6.9 6.9 6.9 6.9 7.2 7.7 8.1 8.0 8.2 8.2 8.5 8.5 8.5 8.4 8.6 8.2 8.3 8.6 8.8 8.5 8.3 8.3 8.7 8.3 8.4 8.4 8.5 8.6 8.7 8.6 8.6 8.5 8.5 8.6 8.7 8.7 8.7 8.5 8.0 7.6 7.3 7.3
Wind_Speed
13 12 11 10 9 8 8 8 8 9 9 10 12 13 16 17 17 3 6 7 6 5 2 2 2 1 3 2 2 1 1 2 2 2 3 10 10 6 4 5 3 2 3 5 19
15 13 11 10 9 8 8 8 8 8 9 10 11 13 14 15 3 9 9 15 12 8 1 3 3 4 1 2 2 1 0 2 3 3 1 6 7 12 7 8 6 3 7 16 19
16 14 12 11 9 8 8 8 8 8 8 10 10 13 13 11 4 4 6 21 17 7 2 1 2 1 0 2 2 2 2 3 3 8 5 5 6 7 8 8 12 12 15 19 19
16 16 14 11 10 8 8 8 8 7 8 9 10 12 14 2 4 2 10 10 13 10 4 3 2 1 0 1 2 3 7 5 4 4 3 5 6 5 13 2 3 13 20 20 20
17 16 15 13 11 9 8 7 7 7 7 8 9 10 3 2 7 4 8 7 11 10 8 5 2 1 3 3 3 3 5 3 7 8 7 4 2 1 2 9 6 17 19 20 17
16 17 16 14 11 9 7 7 7 7 7 7 8 8 2 4 2 4 5 2 6 6 6 5 1 2 2 3 2 3 8 10 5 5 0 5 6 2 7 3 12 17 17 16 18
17 16 16 15 13 10 6 6 6 7 8 6 6 2 2 10 4 7 5 2 5 4 4 3 2 2 5 5 4 5 6 4 5 7 2 9 4 6 4 7 11 11 12 12 13
17 17 17 15 13 10 6 5 6 7 6 5 3 2 6 2 3 8 3 3 3 2 2 3 0 2 2 6 3 3 2 4 5 10 3 4 2 5 5 9 10 7 7 10 8
17 17 17 16 14 9 6 6 7 6 4 2 1 1 6 7 3 4 6 4 6 3 2 2 1 2 0 2 1 6 3 5 5 9 2 4 2 5 3 5 9 3 4 10 11
17 17 17 16 14 7 7 7 2 2 2 3 2 3 5 2 1 2 4 4 3 6 4 2 2 0 1 3 1 3 4 5 6 6 10 11 7 3 4 6 4 0 4 4 6
17 17 17 16 13 4 3 4 4 3 3 5 2 3 3 6 3 3 4 6 3 2 6 2 5 5 2 2 2 3 4 7 4 3 4 7 6 6 3 5 5 3 1 8 10
17 18 17 14 8 2 1 3 0 2 3 9 5 7 5 4 2 3 6 6 4 8 4 4 11 2 2 2 3 5 5 5 1 3 2 3 9 6 6 4 4 5 5 10 9
18 18 17 13 4 1 3 5 2 2 1 1 5 5 5 7 3 7 9 5 4 6 5 7 0 7 3 5 7 8 8 5 3 5 7 3 4 6 3 2 3 4 3 6 9
17 17 16 10 3 2 4 1 4 3 1 4 4 3 5 4 4 4 6 6 2 9 6 3 2 7 7 6 5 7 4 6 6 7 2 4 3 2 3 2 2 5 6 9 9
18 16 12 3 2 4 2 5 4 3 3 5 4 2 2 6 8 7 2 3 8 6 6 7 4 6 3 3 5 3 5 4 4 4 4 4 2 2 2 2 4 3 8 8 9
19 17 8 2 3 6 4 4 2 3 3 4 5 7 7 4 3 5 7 4 2 4 1 6 1 4 3 5 9 4 1 5 4 2 4 2 3 4 3 2 1 4 7 9 9
22 15 7 5 1 1 3 4 3 3 0 6 5 8 10 7 5 9 14 13 9 9 10 5 12 7 5 8 3 7 6 2 3 4 1 1 3 1 3 6 4 1 9 9 9
20 4 8 5 2 5 3 3 3 1 3 2 4 9 10 7 3 7 13 14 4 6 5 9 9 9 7 10 3 7 5 3 3 2 1 2 3 3 7 4 6 5 10 11 9
7 2 4 3 12 2 3 4 2 3 2 2 5 8 6 4 4 7 14 16 15 10 4 7 6 2 6 3 4 5 5 2 6 1 3 0 3 6 8 5 3 8 12 10 7
3 2 3 3 12 2 2 2 2 3 3 1 5 4 9 12 7 8 12 13 12 13 12 2 4 2 2 4 6 3 9 4 1 3 3 2 3 5 10 10 8 9 11 11 8
1 2 5 2 4 2 5 3 4 5 4 2 0 4 4 10 8 8 11 5 22 17 12 8 2 2 2 3 6 5 5 4 4 2 3 2 1 5 15 16 12 11 9 10 10
1 3 3 2 2 1 3 2 2 3 3 5 3 3 5 8 9 10 13 8 14 16 13 11 3 5 7 0 3 3 6 9 6 5 1 2 1 1 12 14 15 9 12 10 11
2 3 2 3 3 2 1 3 3 3 3 2 3 4 2 5 6 8 6 2 14 15 18 10 5 4 3 3 3 7 5 4 6 3 7 5 2 4 10 10 12 15 12 11 11
1 3 2 1 1 1 1 2 4 4 5 4 3 3 3 4 4 4 5 2 10 9 7 17 6 8 7 3 1 6 9 10 7 5 6 8 8 13 15 16 15 14 13 12 10
3 2 2 4 3 2 1 2 4 3 4 4 3 8 6 4 3 4 4 5 4 9 5 9 11 7 2 2 3 3 9 12 9 6 7 4 9 9 16 16 16 15 14 13 11
3 2 2 2 1 2 2 2 3 5 3 2 4 3 8 4 3 4 2 1 2 5 7 3 3 4 1 2 3 4 4 7 8 4 9 6 9 1 11 14 14 15 13 12 10
2 0 2 1 1 2 1 3 2 7 6 3 6 1 5 3 3 10 8 4 2 5 3 3 5 4 6 1 8 3 6 6 4 4 4 8 4 4 12 17 17 15 12 12 10
Wind_Direction
355 349 341 331 321 315 309 308 305 306 304 313 319 322 324 328 318 178 242 232 194 204 239 144 183 233 182 178 162 129 34 110 225 215 104 149 188 184 154 149 122 104 117 126 145
356 352 344 335 323 312 307 303 304 303 304 310 316 318 324 332 297 254 245 247 217 166 282 19 353 352 163 140 168 215 61 211 258 259 57 171 185 172 169 175 186 136 97 137 148
357 354 349 339 328 317 307 299 301 301 302 308 313 316 321 323 281 248 311 230 199 168 249 321 304 287 17 176 185 176 244 174 300 251 185 176 197 193 188 197 209 186 159 159 159
356 354 351 342 331 319 308 297 296 298 300 307 311 318 317 262 188 59 325 240 200 176 212 278 301 349 180 332 193 272 256 241 254 210 205 194 190 206 212 36 323 167 154 160 167
352 352 350 342 329 316 303 292 290 293 297 305 311 322 299 205 253 341 20 126 147 166 204 205 266 267 346 322 293 217 289 295 240 268 230 221 84 82 346 329 121 145 155 164 170
350 350 348 345 333 317 300 288 285 286 295 302 312 320 234 236 133 97 25 135 157 175 172 189 242 271 271 276 262 281 287 285 311 352 213 126 52 135 12 44 128 150 154 168 173
348 347 346 344 338 324 306 286 279 282 295 298 308 294 226 240 135 313 312 194 180 189 164 188 255 298 337 317 350 308 312 347 42 2 28 141 61 44 41 119 128 141 155 169 181
347 345 345 345 340 330 306 285 274 284 287 283 284 240 252 229 301 281 211 175 194 195 173 173 225 290 265 311 332 11 28 8 35 357 35 235 5 37 68 113 115 114 160 181 173
346 344 343 343 340 324 304 289 284 277 255 257 204 255 263 316 239 234 196 173 156 177 229 127 52 20 315 353 55 26 347 348 350 32 322 31 119 50 92 122 130 76 212 200 178
346 343 342 341 337 322 299 283 283 283 198 196 255 270 249 138 281 160 185 171 159 135 125 160 84 225 69 353 233 1 337 339 322 4 51 81 85 110 112 118 137 63 303 192 163
341 338 338 339 336 321 332 140 153 151 220 210 187 268 320 316 254 192 167 153 121 141 179 72 217 230 50 74 69 290 288 318 314 43 78 71 69 28 27 109 127 103 122 144 181
338 337 337 342 331 304 254 226 90 11 254 226 249 276 259 292 109 140 168 164 176 178 140 176 240 228 153 67 284 256 301 295 243 360 80 71 60 47 27 53 88 122 151 169 201
335 337 338 342 333 227 227 237 110 318 256 193 195 231 237 184 184 178 179 141 152 157 147 198 5 66 26 312 286 279 269 242 257 111 77 341 79 26 18 339 122 133 144 177 200
333 334 334 342 272 155 233 189 273 242 330 166 204 240 164 192 188 192 182 164 126 186 146 205 201 245 270 276 252 294 306 254 184 190 163 341 130 333 337 331 4 190 186 192 197
327 318 316 315 328 209 54 334 130 201 188 141 153 131 143 195 133 183 182 114 174 148 190 192 202 163 227 240 179 299 32 118 182 140 166 36 183 201 295 315 113 156 186 188 190
319 308 296 207 221 253 309 304 200 217 177 148 133 160 165 198 134 130 170 121 124 144 107 226 173 264 228 195 221 242 176 93 99 138 220 52 292 203 228 253 109 154 175 172 179
314 295 212 178 182 352 279 177 180 227 45 158 159 166 176 167 131 172 179 185 191 191 211 223 249 251 210 264 170 185 185 181 195 212 315 142 244 16 208 255 263 165 165 168 173
322 315 204 218 293 326 188 188 206 177 234 114 133 152 188 155 168 158 163 183 174 169 185 210 217 196 174 222 215 183 219 204 237 247 38 166 227 136 190 283 284 232 160 156 170
331 126 132 257 223 282 195 199 238 199 327 116 127 159 182 186 172 166 192 197 192 198 195 173 233 212 216 184 214 140 204 82 111 92 254 63 223 253 224 247 241 172 144 146 153
172 164 46 18 166 230 199 243 252 235 319 200 203 185 177 178 168 188 180 196 198 201 218 160 246 183 101 146 61 267 134 171 169 221 258 210 257 197 180 194 193 180 144 137 133
182 104 12 142 178 194 205 236 269 255 249 318 164 168 173 174 184 184 194 202 200 191 196 182 242 125 265 199 186 148 186 74 111 310 269 282 236 198 183 182 190 161 146 137 129
310 90 127 213 189 4 200 220 295 277 260 275 243 237 161 156 191 206 202 232 184 158 183 195 193 253 263 231 300 239 221 186 224 197 182 314 280 99 154 161 167 160 137 126 118
75 102 131 289 203 157 271 269 263 256 248 236 244 228 177 186 204 207 198 213 160 167 170 171 216 241 253 153 166 202 182 151 124 134 194 220 217 129 146 149 155 152 141 130 125
141 129 141 161 355 93 37 272 264 238 244 246 279 183 152 212 201 205 224 130 185 194 156 165 166 205 216 74 67 176 178 172 201 190 170 225 247 160 176 167 166 151 142 140 137
13 77 353 177 196 214 238 293 280 287 215 199 265 227 193 186 201 216 182 135 93 144 130 180 204 200 265 280 219 195 183 178 194 162 217 242 230 257 190 170 163 155 146 147 149
19 7 359 86 1 187 162 216 284 320 258 182 240 287 206 192 229 160 109 217 160 156 157 172 169 156 134 184 206 155 123 198 226 216 252 254 274 167 149 155 158 158 156 153 154
14 323 292 57 98 202 143 309 261 335 230 287 292 207 136 102 156 98 99 70 56 156 113 118 142 174 174 213 161 194 203 185 192 225 249 225 272 147 166 174 167 160 159 157 155